SAT623 LPPI-LPLA

Flight info

Callsign SAT623
Flight time 0h 19m
Altitude 13000
Route GORZI DCT LIZHA DCT CUDLY
Aircraft DH8D/M-SDE2E3FGRY/H

Departure

Time 2026-04-21 16:02
Airport Pico Airport (LPPI)

Arrival

Time 2026-04-21 16:22
Airport Lajes Airport (LPLA)
Time Latitude Longitude Altitude Speed Heading
2026-04-21 15:50 38.55278 -28.44107 132 ft 0 kts 307°
2026-04-21 15:59 38.55281 -28.44113 132 ft 2 kts 301°
2026-04-21 15:59 38.55293 -28.44136 131 ft 2 kts 302°
2026-04-21 15:59 38.55312 -28.44179 129 ft 5 kts 291°
2026-04-21 16:00 38.55328 -28.44260 126 ft 11 kts 302°
2026-04-21 16:00 38.55376 -28.44328 123 ft 9 kts 306°
2026-04-21 16:00 38.55381 -28.44337 122 ft 0 kts 300°
2026-04-21 16:01 38.55383 -28.44342 122 ft 4 kts 300°
2026-04-21 16:01 38.55400 -28.44367 120 ft 3 kts 27°
2026-04-21 16:01 38.55409 -28.44352 120 ft 0 kts 65°
2026-04-21 16:01 38.55414 -28.44334 121 ft 0 kts 81°
2026-04-21 16:02 38.55430 -28.44171 124 ft 48 kts 83°
2026-04-21 16:02 38.55504 -28.43442 119 ft 120 kts 83°
2026-04-21 16:02 38.55675 -28.42062 270 ft 178 kts 68°
2026-04-21 16:02 38.56343 -28.40743 990 ft 181 kts 32°
2026-04-21 16:03 38.57370 -28.39768 1751 ft 188 kts 22°
2026-04-21 16:03 38.58555 -28.39407 2264 ft 170 kts 344°
2026-04-21 16:03 38.59699 -28.39614 2973 ft 169 kts 342°
2026-04-21 16:03 38.60914 -28.39351 3582 ft 200 kts 21°
2026-04-21 16:04 38.61721 -28.37816 4140 ft 228 kts 73°
2026-04-21 16:04 38.61706 -28.35753 4696 ft 238 kts 95°
2026-04-21 16:04 38.61534 -28.33676 5403 ft 237 kts 95°
2026-04-21 16:04 38.61365 -28.31583 5983 ft 242 kts 94°
2026-04-21 16:05 38.61194 -28.29439 6598 ft 243 kts 94°
2026-04-21 16:05 38.61034 -28.27294 7144 ft 245 kts 95°
2026-04-21 16:05 38.60876 -28.25095 7632 ft 250 kts 94°
2026-04-21 16:05 38.60719 -28.22902 8147 ft 255 kts 93°
2026-04-21 16:06 38.60555 -28.20498 8252 ft 280 kts 93°
2026-04-21 16:06 38.60383 -28.17953 8548 ft 292 kts 94°
2026-04-21 16:06 38.60205 -28.15334 8956 ft 300 kts 93°
2026-04-21 16:06 38.60026 -28.12700 9458 ft 302 kts 92°
2026-04-21 16:07 38.59843 -28.10006 9931 ft 306 kts 93°
2026-04-21 16:07 38.59656 -28.07286 10410 ft 311 kts 93°
2026-04-21 16:07 38.59468 -28.04549 10996 ft 309 kts 92°
2026-04-21 16:07 38.59283 -28.01830 11454 ft 314 kts 92°
2026-04-21 16:08 38.58900 -27.96243 12445 ft 320 kts 92°
2026-04-21 16:08 38.58699 -27.93346 12630 ft 335 kts 92°
2026-04-21 16:08 38.58488 -27.90297 12684 ft 352 kts 92°
2026-04-21 16:09 38.58266 -27.87099 12699 ft 367 kts 92°
2026-04-21 16:09 38.58036 -27.83830 12705 ft 379 kts 93°
2026-04-21 16:09 38.57795 -27.80419 12702 ft 386 kts 92°
2026-04-21 16:09 38.57558 -27.77018 12697 ft 388 kts 93°
2026-04-21 16:10 38.57314 -27.73576 12698 ft 390 kts 92°
2026-04-21 16:10 38.57069 -27.70144 12692 ft 391 kts 92°
2026-04-21 16:10 38.56819 -27.66657 12697 ft 392 kts 93°
2026-04-21 16:10 38.56572 -27.63224 12688 ft 393 kts 92°
2026-04-21 16:11 38.56320 -27.59739 12692 ft 393 kts 92°
2026-04-21 16:11 38.56067 -27.56249 12690 ft 394 kts 93°
2026-04-21 16:11 38.55817 -27.52827 12696 ft 386 kts 92°
2026-04-21 16:11 38.55574 -27.49450 12357 ft 380 kts 92°
2026-04-21 16:12 38.55416 -27.47202 12177 ft 375 kts 91°
2026-04-21 16:12 38.55093 -27.42936 11798 ft 362 kts 93°
2026-04-21 16:12 38.54862 -27.39752 11359 ft 356 kts 93°
2026-04-21 16:12 38.54634 -27.36633 10877 ft 349 kts 92°
2026-04-21 16:13 38.54414 -27.33605 10428 ft 338 kts 93°
2026-04-21 16:13 38.54199 -27.30682 10004 ft 328 kts 94°
2026-04-21 16:13 38.53988 -27.27815 9590 ft 319 kts 94°
2026-04-21 16:13 38.53782 -27.25054 9179 ft 311 kts 94°
2026-04-21 16:14 38.53581 -27.22364 8797 ft 302 kts 94°
2026-04-21 16:14 38.53382 -27.19705 8412 ft 294 kts 94°
2026-04-21 16:14 38.53190 -27.17162 8035 ft 287 kts 94°
2026-04-21 16:14 38.53001 -27.14659 7666 ft 279 kts 93°
2026-04-21 16:15 38.52819 -27.12238 7320 ft 269 kts 93°
2026-04-21 16:15 38.52642 -27.09909 6988 ft 261 kts 94°
2026-04-21 16:15 38.52485 -27.07635 6643 ft 265 kts 89°
2026-04-21 16:15 38.52893 -27.05355 6265 ft 262 kts 52°
2026-04-21 16:16 38.53973 -27.03516 5978 ft 265 kts 41°
2026-04-21 16:16 38.55173 -27.01685 5636 ft 273 kts 42°
2026-04-21 16:16 38.56385 -26.99822 5262 ft 266 kts 41°
2026-04-21 16:16 38.57538 -26.98051 4922 ft 257 kts 42°
2026-04-21 16:17 38.58647 -26.96333 4591 ft 247 kts 41°
2026-04-21 16:17 38.59919 -26.94948 3952 ft 231 kts 11°
2026-04-21 16:17 38.61315 -26.94892 3652 ft 183 kts 329°
2026-04-21 16:17 38.62356 -26.95586 3462 ft 160 kts 320°
2026-04-21 16:18 38.63276 -26.96296 3244 ft 146 kts 318°
2026-04-21 16:18 38.64110 -26.96982 3073 ft 143 kts 316°
2026-04-21 16:18 38.64916 -26.97685 2875 ft 138 kts 315°
2026-04-21 16:18 38.65679 -26.98382 2689 ft 133 kts 314°
2026-04-21 16:19 38.66409 -26.99066 2506 ft 127 kts 314°
2026-04-21 16:19 38.67114 -26.99743 2337 ft 123 kts 312°
2026-04-21 16:19 38.67780 -27.00397 2182 ft 122 kts 313°
2026-04-21 16:19 38.68473 -27.01089 2015 ft 130 kts 313°
2026-04-21 16:20 38.69174 -27.01799 1830 ft 127 kts 312°
2026-04-21 16:20 38.69859 -27.02498 1653 ft 127 kts 311°
2026-04-21 16:20 38.70570 -27.03229 1504 ft 134 kts 311°
2026-04-21 16:20 38.71333 -27.04023 1295 ft 144 kts 311°
2026-04-21 16:21 38.72119 -27.04840 1199 ft 146 kts 313°
2026-04-21 16:21 38.72930 -27.05656 1006 ft 152 kts 312°
2026-04-21 16:21 38.73727 -27.06498 832 ft 146 kts 312°
2026-04-21 16:21 38.74469 -27.07275 496 ft 131 kts 316°
2026-04-21 16:22 38.75129 -27.07970 285 ft 121 kts 315°
2026-04-21 16:22 38.75746 -27.08623 198 ft 95 kts 317°
2026-04-21 16:22 38.76062 -27.08954 191 ft 33 kts 320°
2026-04-21 16:22 38.76169 -27.09078 188 ft 5 kts 303°
2026-04-21 16:23 38.76182 -27.09069 187 ft 6 kts 130°
2026-04-21 16:23 38.76078 -27.08958 190 ft 26 kts 142°
2026-04-21 16:23 38.75921 -27.08889 195 ft 22 kts 193°
2026-04-21 16:23 38.75785 -27.08911 198 ft 17 kts 184°
2026-04-21 16:24 38.75695 -27.08901 202 ft 12 kts 139°
2026-04-21 16:24 38.75617 -27.08820 204 ft 17 kts 141°
2026-04-21 16:24 38.75547 -27.08747 204 ft 1 kts 141°
2026-04-21 16:24 38.75545 -27.08745 204 ft 0 kts 141°